#timestamp,LO_Frequency,Hit,StdDev 
1656676815.6,286046998.3,N
1656676835.4,286046996.6,N
1656676855.2,286046998.8,N
1656676875.1,286046998.8,N
1656676876.0,286046998.8,N
1656676895.8,286046998.6,N
1656676915.6,286046998.2,N
1656676935.5,286046998.6,N
1656676955.3,286046998.1,N
1656676975.2,286046998.3,N
1656676995.9,286047000.0,N
1656677015.7,286047000.3,N
1656677035.6,286046999.9,N
1656677055.4,286046998.5,N
1656677075.2,286047001.1,N
1656677095.1,286047000.8,N
1656677096.0,286047000.8,N
1656677115.8,286046998.2,N
1656677135.7,286046999.3,N
1656677155.5,286046999.3,N
1656677175.3,286046998.3,N
1656677195.2,286046996.9,N
1656677215.0,286046999.2,N
1656677215.9,286046999.2,N
1656677235.8,286046996.5,Y
1656677255.6,286046998.5,P
1656677275.4,286046999.9,N
1656677295.3,286046999.9,N
1656677315.1,286047001.9,N
1656677335.8,286047001.9,N
1656677355.7,286047002.5,N
1656677375.5,286047002.5,N
1656677395.4,286047001.9,N
1656677415.2,286047002.1,N
1656677435.0,286047001.5,N
1656677435.9,286047001.5,N
1656677455.8,286047001.4,N
1656677475.6,286047002.7,N
1656677495.4,286047002.6,N
1656677515.3,286046999.8,N
1656677535.1,286047000.1,N
1656677555.9,286047002.0,N
1656677575.7,286047002.7,N
1656677595.5,286046999.8,N
1656677615.4,286047000.6,N
1656677635.2,286047000.3,N
1656677655.0,286047000.6,N
1656677656.0,286047000.6,N
1656677675.8,286047000.3,N
1656677695.6,286047002.3,N
1656677715.5,286047000.4,N
1656677735.3,286047002.3,N
1656677755.1,286047002.4,N
1656677775.9,286046999.8,N
1656677795.7,286047002.6,N
1656677815.6,286047002.1,N
1656677835.4,286047002.0,N
1656677855.2,286047002.3,N
1656677875.1,286047002.4,N
1656677876.0,286047002.4,N
1656677895.8,286047002.1,N
1656677915.6,286047000.1,N
1656677935.5,286047002.7,N
1656677955.3,286047000.3,N
1656677975.2,286047000.3,N
1656677995.9,286047000.3,N
1656678015.7,286046999.9,N
1656678035.6,286046999.7,N
1656678055.4,286046999.7,N
1656678075.2,286047000.0,N
1656678095.1,286047002.6,N
1656678096.0,286047002.6,N
1656678115.8,286047000.3,N
1656678135.7,286047000.0,N
1656678155.5,286047000.6,N
1656678175.3,286046998.1,N
1656678195.2,286047002.7,N
1656678215.0,286047002.7,N
1656678215.9,286047002.7,N
1656678235.8,286047000.9,N
1656678255.6,286047000.7,N
1656678275.4,286046998.4,N
1656678295.3,286046999.3,N
1656678315.1,286046999.2,N
1656678335.8,286046996.8,N
1656678355.7,286046999.1,N
1656678375.5,286046998.9,N
1656678395.4,286046998.2,N
1656678415.2,286046999.2,N
1656678435.0,286047000.9,N
1656678435.9,286047000.9,N
1656678455.8,286046998.6,N
1656678475.6,286046998.5,N
1656678495.4,286047001.1,N
1656678515.3,286047001.1,N
1656678535.1,286046998.1,N
1656678555.9,286046998.2,N
1656678575.7,286047000.5,N
1656678595.5,286047000.9,N
1656678615.4,286047000.3,N
1656678635.2,286047000.8,N
1656678655.0,286047000.9,N
1656678655.9,286047000.9,N
1656678675.8,286047000.0,N
1656678695.6,286046999.9,N
1656678715.5,286047000.8,N
1656678735.3,286047000.6,N
1656678755.1,286047000.9,N
1656678775.9,286047000.9,N
1656678795.7,286047000.5,N
1656678815.5,286046998.5,N
1656678835.4,286047000.8,N
1656678855.2,286047000.3,N
1656678875.1,286047001.0,N
1656678876.0,286047001.0,N
1656678895.8,286047000.7,N
1656678915.6,286047000.3,N
1656678935.5,286047000.0,N
1656678955.3,286047000.0,N
1656678975.1,286047000.2,N
1656678995.9,286047000.2,N
1656679015.7,286047002.4,N
1656679035.6,286047001.6,N
1656679055.4,286047001.6,N
1656679075.2,286047001.8,N
1656679095.1,286047001.7,N
1656679096.0,286047001.7,N
1656679115.8,286047002.8,Y
1656679135.7,286046999.8,P
1656679155.5,286046999.7,N
1656679175.3,286046999.8,N
1656679195.2,286047000.1,N
1656679215.0,286047002.7,Y
1656679215.9,286047002.7,P
1656679235.8,286047000.1,N
1656679255.6,286047000.3,N
1656679275.4,286047000.1,N
1656679295.3,286046999.9,N
1656679315.1,286047000.1,N
1656679335.9,286046998.1,N
1656679355.7,286046999.8,N
1656679375.5,286047000.2,N
1656679395.4,286046999.7,N
1656679415.2,286047002.7,N
1656679435.0,286047002.7,N
1656679435.9,286047002.7,N
1656679455.8,286047002.3,N
1656679475.6,286047000.6,N
1656679495.5,286047000.3,N
1656679515.3,286047001.9,N
1656679535.1,286047001.8,N
1656679555.9,286047002.1,N
1656679575.7,286047002.3,N
1656679595.5,286047002.2,N
1656679615.4,286047002.1,N
1656679635.2,286047002.7,N
1656679655.1,286047002.6,N
1656679656.0,286047002.6,N
1656679675.8,286047002.4,N
1656679695.6,286047002.2,N
1656679715.5,286047002.3,N
1656679735.3,286047002.6,N
1656679755.2,286047002.6,N
1656679775.9,286047002.5,N
1656679795.7,286047002.1,N
1656679815.6,286047001.7,N
1656679835.4,286047002.5,N
1656679855.2,286047001.3,N
1656679875.1,286047004.1,Y
1656679876.0,286047004.1,P
1656679895.8,286047002.2,N
1656679915.7,286047002.4,N
1656679935.5,286047000.3,N
1656679955.3,286047000.0,N
1656679975.2,286047002.7,N
1656679995.0,286047004.4,Y
1656679995.9,286047004.4,P
1656680015.8,286047002.7,N
1656680035.6,286047000.2,N
1656680055.4,286047002.8,N
1656680075.3,286047000.1,N
1656680095.1,286047000.3,N
1656680115.8,286046999.9,N
1656680135.7,286047000.3,N
1656680155.5,286047000.4,N
1656680175.4,286047000.5,N
1656680195.2,286046998.9,N
1656680215.0,286047000.8,N
1656680215.9,286047000.8,N
1656680235.8,286046998.5,N
1656680255.6,286046998.3,N
1656680275.4,286046999.5,N
1656680295.3,286046999.3,N
1656680315.1,286046999.4,N
1656680335.9,286046999.3,N
1656680355.7,286046998.1,N
1656680375.5,286046999.0,N
1656680395.4,286046998.8,N
